Temperature
21 21 21 22 23 23 24 24 24 25 26 26 25 24 25 25 26 26 25 25 25 24 24 23 23 22 22 22 21 21 20 20 19 18 18 18 17 17 16 16 15 15 14 14
21 21 23 24 24 24 24 24 25 26 27 26 25 25 25 26 26 25 25 25 25 24 24 23 23 22 22 21 21 21 20 20 19 19 18 18 17 17 16 16 15 15 14 14
22 23 24 24 24 24 24 25 25 25 26 26 25 24 25 26 26 26 25 25 25 25 24 23 23 22 22 21 21 21 21 20 19 19 18 17 17 17 16 16 16 15 15 14
22 23 24 24 24 24 24 25 25 26 25 24 25 23 24 25 25 25 25 25 24 24 24 23 23 22 22 22 21 21 21 20 19 19 18 17 17 17 16 16 16 15 15 15
22 23 23 23 24 24 24 26 26 26 25 25 25 24 24 25 24 25 25 24 24 24 23 23 22 22 22 21 21 21 20 20 19 19 18 17 17 17 16 16 16 15 15 15
23 25 24 24 25 25 25 26 25 25 25 23 24 24 23 24 24 25 25 24 24 23 23 22 22 21 21 21 20 20 20 20 19 18 18 17 17 17 16 16 16 16 16 15
23 24 25 25 25 25 26 25 23 22 22 22 25 25 24 25 26 25 25 24 23 23 22 21 21 21 21 20 20 20 19 19 19 18 18 17 17 17 17 16 16 16 16 16
23 23 25 26 25 25 25 24 22 21 22 23 25 25 24 25 25 25 24 23 23 22 21 21 20 20 20 20 20 19 19 19 18 18 18 18 17 17 17 16 16 16 16 16
23 23 26 26 26 26 25 23 23 22 23 24 25 24 24 25 25 25 24 23 22 21 21 20 20 20 20 19 19 19 19 19 18 18 18 18 17 17 17 16 16 16 16 16
24 24 25 26 26 26 25 25 24 23 23 23 24 24 23 23 24 24 23 23 22 21 21 20 20 19 19 19 19 19 19 19 18 18 18 17 17 17 17 16 16 16 16 16
25 25 25 25 25 26 26 25 25 25 25 25 24 24 26 24 24 23 23 22 21 21 20 20 19 19 19 19 19 19 19 18 18 18 18 17 17 17 16 16 16 16 16 16
26 25 25 26 27 27 27 27 26 25 26 26 24 23 26 24 24 23 22 22 21 20 20 19 19 19 19 19 19 19 18 18 18 17 17 17 17 17 16 16 16 16 16 16
25 25 25 25 25 26 26 27 27 27 26 26 25 23 25 24 23 23 22 21 20 20 19 19 19 19 18 18 18 18 18 18 17 17 17 17 16 16 16 16 16 16 16 16
24 25 25 24 25 26 26 26 26 26 25 26 25 23 23 23 22 22 22 21 20 20 19 19 18 18 18 18 18 18 18 17 17 17 16 16 16 16 16 16 16 16 16 16
26 25 26 26 27 27 27 26 26 26 26 26 25 24 24 23 22 22 21 21 20 19 19 18 18 18 18 18 17 17 17 17 17 16 16 16 16 16 16 16 15 15 15 15
26 26 26 26 27 27 26 26 26 26 26 26 26 25 25 24 23 22 21 21 20 19 19 18 18 18 18 17 17 17 17 17 16 16 16 15 15 15 15 15 15 15 15 15
26 26 25 25 27 26 25 26 26 26 26 26 25 25 25 24 23 22 21 20 20 19 18 18 18 18 17 17 17 17 16 16 16 16 15 15 15 15 15 14 14 14 14 14
26 26 25 25 25 24 26 27 27 26 26 26 26 25 24 23 22 22 21 20 19 18 18 17 17 17 17 17 17 16 16 16 15 15 15 14 14 14 14 14 14 14 14 14
25 25 24 24 24 25 26 26 26 25 25 26 26 25 24 22 21 21 20 19 19 18 17 17 17 17 17 16 16 16 16 16 15 14 14 14 13 13 13 13 13 13 13 13
24 24 24 24 24 24 25 26 26 26 24 26 25 24 23 22 20 20 20 19 18 17 17 16 16 16 16 15 15 15 15 15 14 14 14 13 13 13 13 13 13 12 12 12
22 22 22 23 23 25 25 25 25 23 24 25 25 23 22 21 21 21 19 18 17 17 16 16 16 15 15 15 15 15 14 14 14 13 13 13 12 12 12 12 12 12 12 12
23 23 23 23 23 24 24 24 24 24 24 24 24 23 22 21 21 20 18 17 17 16 16 15 15 15 14 14 14 14 14 13 13 13 12 12 12 12 12 12 11 11 11 11
25 25 24 24 23 23 24 24 23 23 23 23 23 22 21 20 19 18 17 17 16 16 15 15 15 14 14 14 14 13 13 13 12 12 12 11 11 11 11 11 11 11 11 10
26 25 24 24 23 23 23 22 22 22 22 22 22 21 20 19 18 18 17 16 16 15 15 15 14 14 14 13 13 13 13 12 12 11 11 11 11 11 11 10 10 10 10 10
24 24 23 23 23 23 22 22 21 21 21 21 20 20 19 18 18 17 16 16 15 15 15 14 14 14 13 13 13 13 12 12 11 11 11 11 11 10 10 10 10 10 9 9
23 23 22 22 23 23 22 21 21 20 20 20 19 19 19 18 17 17 16 15 15 15 14 14 14 13 13 13 13 12 12 11 11 11 11 10 10 10 10 9 9 9 9 9
Wind_Speed
9 8 9 11 11 8 9 10 10 9 10 8 7 6 7 6 4 5 6 6 6 6 7 8 6 7 7 6 5 8 8 6 5 2 1 2 2 1 3 3 4 3 4 6
8 10 11 10 10 9 8 9 9 9 10 8 7 8 7 7 5 4 4 5 6 8 8 8 8 7 6 6 5 7 8 7 6 3 1 2 2 1 2 1 2 2 4 5
9 8 9 9 9 8 8 6 7 10 9 7 8 8 8 8 7 6 5 4 4 7 9 8 8 6 6 6 6 4 7 8 7 5 2 3 2 1 1 1 2 1 2 2
4 6 9 8 8 7 4 5 8 10 10 7 8 6 7 9 7 6 5 5 5 5 6 6 6 6 5 6 5 5 6 7 6 6 4 2 1 1 1 1 1 0 2 2
4 8 9 9 7 5 3 6 8 9 7 5 7 6 7 8 7 7 7 6 6 6 6 5 5 5 4 4 3 3 5 6 6 5 5 2 1 0 1 0 1 1 1 2
6 6 5 5 4 4 5 6 7 6 3 4 7 6 5 6 8 9 8 8 7 7 7 6 6 6 5 5 4 4 5 5 5 3 3 4 2 2 2 2 1 1 1 2
7 7 6 6 7 6 7 6 4 3 2 4 7 5 6 9 10 9 9 9 8 7 7 7 7 6 5 4 4 4 5 4 4 3 3 3 3 3 2 0 1 1 1 1
8 8 8 7 5 5 7 4 1 2 3 4 6 6 9 11 10 10 10 9 9 8 7 7 6 5 4 4 4 3 4 4 4 3 3 2 2 2 1 0 1 2 1 1
4 6 7 6 4 3 5 4 2 3 4 4 6 10 10 10 10 10 10 9 8 8 7 7 6 5 5 4 3 3 3 3 3 3 3 2 2 1 1 2 2 1 1 1
3 7 8 6 5 4 4 2 4 3 2 4 9 11 10 13 11 10 9 9 8 7 7 7 6 6 5 4 3 3 2 2 1 2 2 1 1 1 1 2 2 2 3 1
4 5 8 8 7 8 7 6 4 4 4 2 5 4 11 14 12 11 10 9 8 7 7 6 5 6 6 5 4 3 3 2 1 0 0 0 1 1 2 3 2 3 4 4
4 4 8 10 5 2 4 5 5 3 2 1 3 5 9 12 11 11 11 9 8 8 7 6 6 6 6 5 4 3 3 2 1 1 1 1 1 1 3 3 3 4 4 4
3 3 5 8 6 6 6 5 5 6 3 3 3 8 8 10 11 11 11 9 8 8 7 6 6 5 5 4 4 4 3 2 2 2 2 2 2 2 3 3 2 3 4 4
3 5 5 3 1 8 9 7 5 7 4 3 4 12 13 12 12 11 10 9 9 8 7 7 6 5 5 4 4 5 4 3 3 2 2 3 3 3 3 4 3 4 4 4
5 8 7 3 1 3 5 7 8 9 8 5 4 11 16 15 13 12 11 10 9 8 7 7 6 5 5 4 4 5 4 4 4 3 3 3 5 5 4 4 4 5 6 6
6 8 8 5 5 6 7 9 9 10 8 5 2 4 10 13 13 12 12 11 9 8 7 6 5 5 5 4 4 4 4 4 4 4 4 4 5 5 5 5 5 5 5 6
8 9 9 8 6 7 10 13 13 11 9 6 5 5 11 13 13 13 12 10 10 9 7 6 5 4 4 4 4 4 4 4 5 5 5 5 5 5 6 7 6 6 6 6
7 8 6 7 6 9 3 3 4 7 7 6 4 9 12 11 9 9 10 9 9 9 7 6 5 4 3 3 3 3 3 4 5 6 6 6 5 5 6 6 6 6 5 6
7 7 6 7 9 7 5 6 6 6 6 6 7 11 12 12 10 8 9 9 8 8 7 5 4 3 3 4 3 3 4 5 6 6 5 5 5 5 6 6 6 6 6 7
7 8 7 7 7 6 3 9 7 4 5 7 9 13 14 13 8 8 10 10 9 8 6 5 4 3 4 3 3 3 3 5 6 5 5 5 5 5 5 5 5 6 6 6
8 8 10 10 8 4 8 10 8 5 3 8 10 13 14 11 5 9 13 10 9 7 6 5 4 3 3 1 1 2 3 5 4 4 4 4 5 5 4 4 4 6 6 6
10 7 9 9 9 5 10 8 5 4 6 7 8 10 10 8 7 11 12 10 9 7 6 5 4 3 3 1 1 1 2 3 2 1 2 4 4 5 5 4 5 6 6 6
8 5 3 4 2 6 7 5 6 6 6 6 6 7 8 8 9 11 10 9 8 8 6 5 4 4 4 3 1 1 1 0 1 2 3 4 5 3 3 4 5 5 5 5
7 3 2 1 6 7 6 6 5 3 3 5 5 6 8 7 8 8 9 8 7 7 6 5 4 4 3 3 3 2 1 1 2 3 4 4 4 4 4 4 4 4 4 4
0 3 3 5 3 5 5 6 5 4 3 4 4 5 7 7 7 7 7 7 6 5 5 5 5 4 3 3 3 2 2 1 2 4 4 4 3 3 4 4 4 5 4 4
5 4 5 5 3 4 5 6 5 5 4 4 4 4 5 6 7 7 6 6 5 5 5 5 5 4 4 3 3 2 2 2 3 3 3 3 3 3 3 5 6 7 8 11
Wind_Direction
191 204 206 203 212 232 219 202 192 166 165 173 169 151 151 163 168 168 161 162 167 170 150 133 133 135 139 143 145 131 140 139 127 125 111 91 80 40 78 77 77 3 2 10
187 211 210 208 210 232 234 201 167 146 154 159 158 137 141 143 146 128 133 148 166 157 136 138 145 149 154 153 167 164 151 138 131 127 118 121 102 67 101 80 117 39 31 19
199 196 201 203 201 215 227 191 164 154 150 162 139 127 129 126 111 105 105 111 113 125 134 143 144 145 150 161 183 175 138 137 140 139 100 66 75 305 111 149 113 104 82 43
208 182 183 198 204 201 198 174 178 167 164 168 157 137 135 125 114 109 95 85 82 91 101 117 127 141 161 169 176 163 142 139 135 134 119 122 114 15 80 57 114 184 145 104
191 185 186 196 197 186 190 167 179 187 185 172 162 139 138 129 126 110 100 95 96 96 95 96 105 114 115 117 114 108 110 116 120 125 135 156 207 303 61 33 101 306 147 146
185 176 178 201 175 170 166 181 188 208 211 198 175 139 144 147 131 117 108 98 92 96 96 89 82 85 85 87 89 93 100 103 113 135 157 177 202 219 235 231 191 270 230 178
160 166 172 188 168 179 205 194 186 179 172 199 180 134 126 115 113 113 109 100 90 85 91 89 85 85 86 97 103 110 122 128 141 174 210 197 211 245 251 217 192 246 282 149
159 165 175 188 198 188 207 215 220 189 184 166 177 131 118 111 106 104 101 98 92 87 86 90 94 96 100 107 117 129 138 148 164 188 221 230 217 241 279 156 264 247 241 183
180 165 169 180 243 279 207 191 229 273 221 176 141 111 124 128 124 112 104 98 92 89 87 86 82 88 94 102 111 122 140 161 172 190 205 214 241 226 274 279 273 287 269 231
227 157 163 173 218 231 265 257 197 228 217 177 148 153 159 152 140 126 116 106 99 92 88 86 88 86 86 90 99 111 110 120 140 183 209 191 231 236 228 284 306 310 295 251
228 186 169 182 211 209 203 220 236 232 232 187 154 121 148 150 143 135 123 112 105 96 89 84 83 84 86 88 86 93 100 82 66 358 275 252 215 244 239 246 254 267 278 265
229 252 187 187 181 285 261 258 242 262 266 197 127 107 122 134 132 129 122 116 108 101 95 89 84 81 75 78 87 78 86 92 65 3 342 297 238 232 259 245 235 253 272 286
320 263 193 172 178 201 225 249 283 293 286 237 162 134 130 128 126 127 127 123 118 114 107 97 87 80 75 64 80 82 62 68 83 43 352 334 328 302 294 295 267 269 275 277
292 264 261 259 278 183 197 204 245 277 274 257 137 143 159 152 146 140 137 135 129 121 112 104 96 86 75 57 55 71 55 41 60 72 14 341 335 337 326 321 326 309 301 283
256 263 262 240 257 204 207 202 213 243 265 283 154 155 169 165 158 152 147 142 135 127 116 107 101 93 85 71 54 63 63 48 48 52 38 3 349 355 347 340 334 325 316 312
240 273 277 252 223 234 244 237 228 232 250 261 192 147 148 153 152 151 152 149 143 133 123 115 108 100 92 86 74 71 62 54 58 60 44 26 2 355 349 336 330 320 309 309
222 247 268 266 224 223 240 230 224 226 229 229 217 159 144 149 156 159 155 153 146 136 128 121 107 88 79 75 65 66 67 61 59 57 42 28 11 359 350 343 337 326 321 314
267 257 259 264 241 239 219 101 185 209 214 210 182 138 149 149 140 138 144 148 143 139 133 124 113 101 82 71 69 65 72 69 62 52 34 19 9 358 348 341 333 325 316 308
253 268 263 255 256 252 187 159 164 182 203 191 170 148 145 136 134 147 151 146 138 134 131 127 124 116 87 57 38 40 52 59 59 46 27 16 6 354 345 339 333 328 323 313
234 251 253 254 252 259 137 136 140 171 203 181 164 153 151 149 166 175 157 145 138 135 133 129 122 100 81 53 27 23 44 57 56 39 17 3 351 341 338 336 331 324 318 314
199 218 232 248 254 255 117 127 142 187 187 155 157 156 161 171 168 147 146 145 140 137 139 139 134 120 104 59 9 24 46 52 55 35 2 345 336 325 326 335 326 318 319 321
187 199 210 222 238 226 138 155 170 118 105 127 140 152 161 154 126 133 143 145 147 148 151 153 151 148 144 129 8 38 56 46 37 354 317 314 312 317 336 336 324 323 325 322
200 218 206 204 158 96 130 119 98 106 126 125 133 142 145 143 140 143 147 150 156 160 166 168 167 173 171 157 160 271 104 27 303 299 297 292 295 300 316 322 321 322 327 330
203 194 278 219 144 147 140 121 114 103 110 109 125 141 149 152 150 152 156 161 166 171 174 175 182 194 191 177 184 204 200 237 282 298 300 298 307 321 323 315 310 316 320 320
340 152 225 250 196 157 168 166 157 147 140 131 137 153 158 161 165 167 169 170 173 176 175 184 194 199 206 201 201 202 197 231 275 281 289 301 307 306 305 308 304 303 285 276
263 234 222 237 232 205 178 170 164 167 177 169 170 172 169 174 174 176 177 174 178 184 187 194 200 206 216 221 218 208 209 225 259 276 286 287 293 300 301 298 299 289 280 281
Height
1489 1491 1492 1489 1487 1487 1486 1487 1489 1486 1483 1488 1493 1495 1494 1495 1496 1498 1500 1502 1504 1507 1509 1512 1515 1517 1520 1522 1524 1525 1525 1526 1527 1527 1527 1527 1526 1526 1525 1524 1522 1522 1521 1520
1489 1490 1485 1483 1483 1484 1483 1486 1486 1484 1482 1487 1492 1494 1494 1495 1496 1498 1500 1501 1503 1506 1509 1512 1514 1517 1519 1521 1523 1524 1525 1526 1526 1527 1527 1527 1526 1526 1525 1524 1523 1522 1521 1520
1487 1484 1481 1481 1483 1485 1484 1484 1485 1486 1484 1486 1492 1500 1497 1495 1497 1499 1501 1502 1504 1506 1509 1512 1514 1516 1518 1520 1522 1524 1525 1525 1526 1526 1526 1526 1526 1525 1525 1524 1523 1522 1521 1520
1484 1480 1481 1482 1482 1482 1487 1479 1481 1484 1491 1496 1494 1514 1502 1497 1499 1500 1502 1504 1505 1507 1510 1512 1514 1516 1518 1520 1521 1523 1524 1524 1525 1525 1525 1525 1525 1525 1525 1524 1523 1522 1521 1520
1484 1480 1481 1483 1480 1481 1482 1476 1479 1482 1488 1495 1494 1506 1507 1499 1503 1502 1503 1505 1507 1509 1511 1513 1514 1516 1517 1519 1520 1522 1522 1523 1524 1524 1524 1525 1525 1525 1525 1524 1523 1522 1521 1520
1479 1477 1479 1479 1476 1477 1478 1479 1482 1484 1491 1509 1499 1506 1512 1502 1502 1502 1504 1506 1508 1510 1512 1513 1514 1516 1517 1518 1519 1520 1521 1522 1523 1523 1524 1524 1524 1524 1524 1523 1523 1522 1521 1520
1481 1478 1477 1476 1478 1479 1479 1487 1502 1509 1515 1513 1493 1501 1508 1497 1497 1501 1504 1508 1510 1511 1513 1514 1514 1515 1516 1517 1518 1519 1520 1521 1522 1522 1523 1523 1523 1524 1524 1523 1523 1522 1521 1521
1486 1487 1476 1474 1476 1479 1481 1488 1508 1520 1519 1507 1492 1501 1503 1496 1499 1502 1506 1509 1511 1513 1514 1514 1515 1516 1516 1517 1517 1518 1519 1520 1521 1522 1522 1523 1523 1523 1523 1522 1522 1522 1521 1520
1484 1484 1473 1473 1474 1475 1482 1489 1492 1503 1501 1505 1497 1500 1500 1498 1501 1504 1507 1510 1513 1514 1515 1515 1516 1516 1516 1517 1517 1518 1519 1520 1521 1521 1521 1522 1522 1522 1522 1521 1521 1521 1521 1520
1475 1481 1475 1474 1475 1475 1478 1481 1490 1500 1507 1510 1503 1504 1506 1502 1503 1505 1508 1511 1513 1515 1515 1516 1517 1517 1517 1517 1518 1518 1519 1520 1520 1521 1521 1521 1521 1521 1520 1520 1520 1520 1520 1519
1470 1477 1478 1475 1477 1476 1478 1481 1481 1485 1485 1498 1509 1506 1486 1494 1499 1503 1508 1511 1513 1515 1516 1516 1517 1518 1518 1518 1518 1519 1519 1519 1520 1520 1520 1520 1520 1520 1519 1519 1519 1519 1518 1518
1466 1471 1476 1473 1466 1466 1468 1470 1475 1487 1485 1483 1496 1508 1486 1491 1497 1502 1507 1511 1514 1515 1516 1517 1518 1518 1518 1519 1519 1519 1519 1519 1519 1519 1519 1519 1519 1518 1518 1518 1518 1517 1517 1517
1467 1471 1481 1482 1479 1472 1471 1470 1470 1472 1476 1483 1495 1507 1490 1494 1498 1503 1507 1510 1513 1515 1516 1517 1518 1518 1519 1519 1519 1519 1519 1519 1519 1518 1518 1518 1518 1517 1517 1517 1517 1516 1516 1515
1468 1469 1476 1484 1476 1469 1472 1472 1472 1475 1482 1482 1484 1496 1493 1495 1499 1503 1506 1510 1512 1515 1516 1517 1518 1519 1519 1519 1520 1519 1519 1519 1518 1518 1517 1517 1517 1517 1516 1516 1515 1514 1514 1514
1466 1469 1465 1464 1462 1463 1466 1470 1472 1475 1475 1479 1480 1485 1487 1490 1495 1500 1505 1508 1511 1514 1516 1517 1518 1519 1519 1519 1519 1519 1519 1518 1518 1517 1517 1516 1516 1515 1515 1514 1513 1512 1512 1511
1464 1466 1464 1465 1462 1464 1468 1467 1468 1471 1471 1473 1476 1480 1480 1486 1493 1499 1503 1507 1510 1513 1515 1517 1518 1519 1519 1519 1519 1519 1519 1518 1518 1517 1516 1515 1514 1514 1513 1512 1511 1510 1509 1508
1462 1466 1469 1470 1461 1466 1474 1464 1465 1468 1467 1471 1477 1478 1479 1485 1491 1496 1500 1505 1508 1511 1514 1516 1517 1518 1519 1519 1519 1519 1518 1518 1517 1516 1515 1514 1513 1512 1511 1510 1509 1508 1507 1506
1461 1463 1466 1469 1469 1483 1464 1452 1455 1461 1463 1465 1469 1474 1479 1484 1490 1495 1499 1503 1506 1510 1512 1514 1516 1517 1518 1518 1518 1518 1518 1517 1516 1515 1514 1513 1512 1510 1509 1508 1506 1505 1504 1502
1461 1464 1468 1470 1473 1467 1459 1454 1456 1462 1466 1464 1468 1474 1480 1486 1492 1496 1499 1502 1505 1508 1510 1513 1514 1515 1516 1517 1517 1517 1517 1516 1515 1513 1512 1511 1510 1508 1507 1505 1504 1502 1501 1499
1462 1463 1469 1469 1476 1475 1458 1451 1454 1461 1469 1463 1466 1472 1479 1485 1492 1494 1497 1500 1503 1506 1509 1511 1512 1513 1514 1514 1515 1515 1515 1514 1513 1512 1511 1510 1508 1507 1505 1503 1502 1500 1498 1496
1467 1468 1470 1472 1471 1460 1454 1453 1457 1472 1469 1461 1465 1471 1476 1481 1484 1488 1493 1498 1501 1504 1506 1508 1510 1511 1511 1512 1513 1513 1513 1512 1511 1510 1509 1508 1506 1505 1503 1501 1499 1497 1495 1494
1459 1463 1465 1467 1472 1465 1454 1455 1459 1462 1460 1462 1465 1470 1475 1480 1483 1486 1490 1495 1498 1501 1504 1506 1507 1508 1509 1509 1510 1510 1510 1509 1508 1507 1506 1505 1504 1503 1501 1499 1497 1495 1493 1491
1446 1447 1449 1453 1457 1452 1452 1455 1457 1459 1462 1464 1467 1471 1475 1480 1483 1486 1489 1493 1496 1499 1501 1503 1504 1505 1506 1507 1507 1507 1507 1506 1506 1505 1504 1503 1502 1500 1498 1497 1494 1492 1490 1488
1439 1442 1445 1448 1450 1452 1454 1456 1458 1461 1463 1465 1468 1471 1475 1478 1482 1485 1488 1491 1494 1496 1498 1500 1501 1502 1503 1504 1504 1504 1503 1503 1502 1502 1501 1500 1499 1497 1495 1494 1492 1490 1488 1486
1440 1443 1446 1449 1449 1451 1454 1456 1459 1461 1463 1466 1468 1471 1474 1477 1480 1482 1485 1488 1490 1493 1495 1496 1497 1499 1500 1500 1500 1500 1500 1499 1499 1498 1498 1497 1495 1494 1492 1490 1489 1487 1485 1483
1442 1444 1448 1450 1447 1449 1451 1454 1457 1460 1462 1465 1467 1470 1472 1475 1477 1480 1482 1485 1487 1489 1491 1492 1494 1495 1496 1496 1497 1496 1496 1495 1495 1494 1493 1492 1491 1490 1488 1486 1484 1482 1481 1479